Location: Champs
(48.8539°N, 2.6040°E)
Time: 19:22:26
(UTC+00:00)

ATLAS CENTAUR R/B - Pass Details

Date: 04 June 2022
Orbit: 443 x 688 km, 64.6° (Epoch: 07 June)

Event Time Altitude Azimuth Distance (km) Brightness Sun altitude
Rises 20:50:53 0° 317° (NW) 3,057 7.7 -8.4°
Reaches altitude 10° 20:53:18 10° 313° (NW) 2,125 6.0 -8.7°
Maximum altitude 20:58:00 51° 238° (WSW) 830 2.3 -9.2°
Enters shadow 21:02:19 11° 164° (SSE) 1,959 3.5 -9.6°
